Location: Abraham Lincoln Continuation High School
(33.9711°N, 117.3662°W)
Time: 13:03:59
(UTC+00:00)

CENTAUR R/B - Pass Details

Date: 21 September 2020
Orbit: 753 x 1435 km, 63.5° (Epoch: 26 October)

Event Time Altitude Azimuth Distance (km) Brightness Sun altitude
Rises 02:47:45 0° 338° (NNW) 4,167 6.2 -13.1°
Reaches altitude 10° 02:51:10 10° 353° (N) 3,300 5.5 -13.8°
Maximum altitude 02:57:31 24° 44° (NE) 2,532 4.4 -15.1°
Enters shadow 03:01:26 18° 78° (ENE) 2,934 4.4 -15.9°
